[[{"header":{"parameterUnit":"m.s-1","parameterCategory":1,"la1":30.2991,"la2":30.254,"lo1":-89.0895,"lo2":-89.0444,"dy":0.0017,"dx":0.0017,"nx":28,"ny":28,"refTime":"2024-08-01T03:00:00:Z","depth":0,"parameterNumber":2,"parameterNumberName":"U-component_of_WINDS"},"data":[0,0,0,0,0,0,0,0,0,0,0,0,0,0,0,0,0,0,0,0,0,0,0,0,0,0,0,0,0,0,0,0,0,0,0,0,0,0,0,0,0,0,0,0,0,0,0,0,0,0,0,0,0,0,0,0,0,0,1.8515,1.8517,0,1.8687,1.8689,1.8691,1.8746,1.8745,1.8745,1.8744,1.892,1.8926,1.8931,0,0,0,0,0,0,0,0,0,0,0,0,0,1.8232,1.8237,1.8515,1.8517,1.8519,1.8687,1.8689,1.8692,1.8746,1.8745,1.8744,1.8743,1.8919,1.8925,1.8932,0,0,0,0,0,0,0,0,0,0,0,0,0,1.8375,1.8239,1.8514,1.8567,1.8573,1.8687,1.869,1.8692,1.8746,1.8745,1.8744,1.8743,1.8916,1.8924,1.8932,1.9007,0,0,1.8957,1.8961,0,0,0,0,0,0,0,0,1.8367,1.8385,1.8557,1.8563,1.8571,1.8694,1.8655,1.8798,1.8747,1.8681,1.8744,1.8742,1.8846,1.886,1.8895,1.9015,1.9023,1.8958,1.8963,1.8967,1.8969,0,0,0,0,0,0,0,1.8357,1.8378,1.8583,1.8559,1.8568,1.8581,1.86,1.8682,1.8768,1.8686,1.8691,1.871,1.885,1.8887,1.8899,1.9025,1.8958,1.8965,1.897,1.8973,1.9214,1.9215,0,0,0,0,0,0,1.8338,1.8369,1.8578,1.8588,1.8464,1.8587,1.8608,1.8656,1.8767,1.8783,1.8711,1.8712,1.8874,1.889,1.8906,1.8999,1.8967,1.8974,1.8979,1.9212,1.9214,1.9216,0,0,0,0,0,0,1.8332,1.8356,1.8571,1.848,1.8508,1.8593,1.8646,1.866,1.8697,1.8786,1.8802,1.8734,1.8873,1.8894,1.8981,1.9006,1.8978,1.8985,1.9211,1.9213,1.9215,1.9187,0,0,0,0,0,0,1.8323,1.8353,1.8383,1.848,1.8513,1.8643,1.8648,1.8664,1.8711,1.8714,1.8811,1.8826,1.8874,1.8969,1.8989,1.9017,1.8992,1.9209,1.9212,1.9214,1.9186,1.9188,1.919,0,0,0,0,0,1.8313,1.8368,1.8384,1.8409,1.8551,1.8644,1.8663,1.8717,1.8713,1.8743,1.88,1.8823,1.9,1.8977,1.9001,1.9031,1.9207,1.9211,1.9214,1.9185,1.9188,1.919,0,0,0,0,0,0,1.8271,1.8382,1.8401,1.8489,1.8557,1.8653,1.8693,1.8718,1.8789,1.8788,1.8852,1.8874,1.8955,1.9002,1.8974,1.9109,1.9105,1.9113,1.9075,1.9078,1.908,1.9066,1.8998,0,0,0,0,0,1.8272,1.8339,1.8432,1.8501,1.8534,1.8607,1.865,1.8686,1.8758,1.8787,1.8851,1.8921,1.8992,1.9038,1.9108,1.9193,1.9215,1.9226,1.9228,1.9229,1.9235,1.9283,1.9288,1.9227,1.9227,1.9227,0,0,1.8275,1.8344,1.8382,1.8494,1.8551,1.8618,1.8631,1.8702,1.8752,1.8798,1.8884,1.8932,1.9015,1.91,1.9141,1.9142,1.9257,1.9233,1.9233,1.9239,1.9287,1.9292,1.9297,1.9229,1.9229,1.9228,0,0,1.8315,1.8374,1.8437,1.8494,1.8579,1.8628,1.8643,1.8736,1.877,1.8857,1.8893,1.8953,1.9075,1.9132,1.9176,1.9236,1.926,1.9258,1.9267,1.9312,1.9317,1.9322,1.9342,1.9349,1.9264,1.9264,1.9264,0,1.8307,1.841,1.8467,1.8535,1.8583,1.8628,1.8692,1.8745,1.8849,1.8881,1.888,1.9033,1.9092,1.9191,1.9205,1.924,1.9259,1.9247,1.9312,1.9317,1.9322,1.9343,1.935,1.9263,1.9263,1.9263,1.9263,0,1.8396,1.8467,1.8508,1.8607,1.866,1.8726,1.8792,1.8838,1.8869,1.8918,1.9005,1.9077,1.9162,1.9188,1.922,1.9292,1.9289,1.9299,1.9297,1.9326,1.9346,1.9355,1.9261,1.9262,1.9262,1.9262,0,0,1.8414,1.8543,1.8557,1.8603,1.87,1.8756,1.8823,1.8907,1.8945,1.9016,1.9073,1.9175,1.9185,1.9236,1.9274,1.9314,1.9355,1.9319,1.9322,1.9322,1.9438,1.9429,1.9437,1.9372,1.9373,1.9375,1.9431,0,1.8465,1.8588,1.8641,1.874,1.8805,1.8848,1.8907,1.8973,1.902,1.9082,1.9134,1.9205,1.9213,1.9243,1.9285,1.9341,1.9379,1.9338,1.9426,1.9428,1.9403,1.9448,1.9439,1.9489,1.9439,1.9441,1.9442,0,1.8541,1.8611,1.8716,1.8805,1.8835,1.8887,1.8967,1.9026,1.9102,1.9133,1.9189,1.9225,1.9297,1.929,1.939,1.9361,1.94,1.9433,1.9436,1.9446,1.9436,1.9458,1.9506,1.9513,1.9455,1.9454,1.9453,0,1.8542,1.8663,1.8742,1.8779,1.8885,1.8921,1.8966,1.9041,1.9087,1.9158,1.9188,1.9266,1.9308,1.9367,1.9423,1.9413,1.9518,1.9515,1.9545,1.9543,1.9565,1.9562,1.9618,1.9591,1.9591,1.9591,1.959,0,1.8593,1.8655,1.8743,1.8791,1.8862,1.8922,1.8991,1.904,1.9105,1.9163,1.9206,1.9259,1.933,1.9392,1.9436,1.9512,1.9531,1.9558,1.9568,1.9554,1.955,1.958,1.9577,1.9593,1.9592,1.9592,1.9591,0,1.8606,1.8667,1.8756,1.8849,1.8874,1.8922,1.9001,1.9049,1.9098,1.9171,1.9191,1.9268,1.9343,1.9405,1.9504,1.9533,1.9612,1.9625,1.9586,1.9592,1.9618,1.9614,1.9694,1.9707,1.9671,1.9671,1.9671,0,1.8634,1.8683,1.8781,1.8823,1.8868,1.8935,1.8983,1.9044,1.9092,1.9181,1.9218,1.9296,1.9362,1.9481,1.9545,1.9621,1.9635,1.9658,1.9647,1.963,1.9635,1.9631,1.9635,1.9659,1.9659,1.9659,1.9659,0,1.8677,1.8705,1.8772,1.885,1.8905,1.8969,1.9034,1.9066,1.9139,1.919,1.9268,1.9319,1.942,1.9497,1.9579,1.9626,1.9654,1.9662,1.9673,1.9658,1.9633,1.9646,1.9588,1.966,1.966,1.966,1.966,1.966,1.8698,1.8743,1.8819,1.8892,1.8948,1.9007,1.9057,1.9111,1.9177,1.9264,1.9296,1.9375,1.9449,1.9562,1.961,1.9672,1.9675,1.9691,1.9695,1.9698,1.9695,1.9623,1.9688,1.9688,1.9688,1.9688,1.9688,0,1.8742,1.8793,1.886,1.8949,1.9007,1.9029,1.9102,1.9148,1.9217,1.9284,1.9348,1.9436,1.9511,1.9581,1.9659,1.9696,1.9711,1.9714,1.9712,1.9722,1.9689,1.9671,1.9701,1.9701,1.9701,1.9701,1.9701,1.9701,1.8772,1.8849,1.8886,1.8991,1.9042,1.912,1.9159,1.9214,1.9268,1.9365,1.9427,1.9472,1.954,1.9623,1.9693,1.9711,1.9738,1.9738,1.9759,1.9727,1.9725,1.9723,1.9706,1.9743,1.9743,1.9788,1.9788,1.9788]},{"header":{"parameterUnit":"m.s-1","parameterCategory":1,"la1":30.2991,"la2":30.254,"lo1":-89.0895,"lo2":-89.0444,"dy":0.0017,"dx":0.0017,"nx":28,"ny":28,"refTime":"2024-08-01T03:00:00:Z","depth":0,"parameterNumber":3,"parameterNumberName":"V-component_of_WINDS"},"data":[0,0,0,0,0,0,0,0,0,0,0,0,0,0,0,0,0,0,0,0,0,0,0,0,0,0,0,0,0,0,0,0,0,0,0,0,0,0,0,0,0,0,0,0,0,0,0,0,0,0,0,0,0,0,0,0,0,0,4.0915,4.0914,0,4.0901,4.0901,4.0901,4.0845,4.0843,4.0842,4.0841,4.0828,4.0829,4.083,0,0,0,0,0,0,0,0,0,0,0,0,0,4.0893,4.0894,4.0915,4.0914,4.0914,4.0901,4.0901,4.0901,4.0845,4.0843,4.0842,4.084,4.0828,4.0829,4.083,0,0,0,0,0,0,0,0,0,0,0,0,0,4.0893,4.0894,4.0915,4.0885,4.0882,4.0901,4.0901,4.0901,4.0845,4.0843,4.0841,4.0839,4.0827,4.0829,4.083,4.0877,0,0,4.0834,4.0835,0,0,0,0,0,0,0,0,4.0893,4.0894,4.0889,4.0887,4.0884,4.0872,4.0888,4.0893,4.0846,4.0859,4.0841,4.0839,4.0844,4.0844,4.0846,4.0876,4.0876,4.0834,4.0835,4.0835,4.0836,0,0,0,0,0,0,0,4.0893,4.0894,4.0909,4.0889,4.0886,4.0872,4.087,4.0889,4.0863,4.0858,4.0854,4.0853,4.0843,4.0845,4.0845,4.0876,4.0834,4.0835,4.0836,4.0837,4.0944,4.0946,0,0,0,0,0,0,4.0897,4.0895,4.091,4.0909,4.0884,4.0874,4.0872,4.0878,4.0863,4.0858,4.0855,4.085,4.0844,4.0844,4.0845,4.0898,4.0835,4.0837,4.0837,4.0942,4.0944,4.0946,0,0,0,0,0,0,4.0897,4.0899,4.091,4.0901,4.0901,4.0877,4.0884,4.0879,4.0881,4.086,4.0855,4.0862,4.0842,4.0843,4.0869,4.0897,4.0837,4.0838,4.0939,4.0942,4.0945,4.1007,0,0,0,0,0,0,4.0897,4.09,4.0917,4.0901,4.0902,4.0935,4.0886,4.088,4.0883,4.0878,4.0865,4.0862,4.0841,4.0868,4.0871,4.0898,4.0839,4.0937,4.0941,4.0944,4.1002,4.1011,4.1019,0,0,0,0,0,4.0896,4.0935,4.0918,4.092,4.0923,4.0937,4.0937,4.0912,4.0886,4.0903,4.089,4.0862,4.0894,4.0871,4.0874,4.0902,4.0935,4.094,4.0944,4.0998,4.101,4.1019,0,0,0,0,0,0,4.0955,4.0933,4.0913,4.0948,4.0945,4.0927,4.0948,4.0925,4.0928,4.0923,4.0892,4.089,4.0921,4.0914,4.0889,4.0946,4.091,4.0915,4.095,4.096,4.0969,4.097,4.0841,0,0,0,0,0,4.0972,4.0985,4.0964,4.0997,4.0996,4.0973,4.0978,4.0959,4.0954,4.0952,4.094,4.0937,4.0946,4.0953,4.096,4.1001,4.0997,4.1022,4.103,4.1038,4.1043,4.1063,4.1074,4.0962,4.0962,4.0962,0,0,4.1007,4.0997,4.1007,4.1009,4.1004,4.1018,4.0972,4.0989,4.0999,4.0955,4.0979,4.097,4.0964,4.0998,4.1012,4.0993,4.1073,4.1044,4.1049,4.105,4.1069,4.108,4.1089,4.0965,4.0964,4.0964,0,0,4.1079,4.1072,4.1098,4.1094,4.1087,4.1071,4.1077,4.1063,4.1056,4.1079,4.1046,4.1058,4.1075,4.1072,4.1072,4.1143,4.1117,4.1146,4.1192,4.1212,4.1221,4.1229,4.1253,4.1263,4.1151,4.1151,4.1151,0,4.1124,4.1143,4.1115,4.1134,4.1136,4.1096,4.1122,4.112,4.1116,4.1118,4.1097,4.1116,4.111,4.1142,4.1159,4.1161,4.1168,4.1147,4.1222,4.1229,4.1236,4.1259,4.1269,4.1155,4.1154,4.1154,4.1154,0,4.1199,4.1213,4.1235,4.1231,4.1235,4.1258,4.1234,4.1242,4.1222,4.1209,4.1233,4.1224,4.1228,4.1235,4.1216,4.1264,4.1253,4.1227,4.119,4.1251,4.1272,4.1281,4.116,4.1158,4.1157,4.1157,0,0,4.1307,4.1287,4.1295,4.1293,4.1282,4.1292,4.1313,4.1317,4.1325,4.1323,4.134,4.1355,4.1331,4.1332,4.1313,4.1331,4.1387,4.1303,4.1302,4.1318,4.1439,4.1458,4.1469,4.137,4.1371,4.1373,4.1439,0,4.1374,4.1408,4.1384,4.1422,4.1434,4.1397,4.1415,4.1411,4.1398,4.1408,4.1394,4.1405,4.1373,4.1373,4.139,4.1376,4.141,4.1371,4.1385,4.1386,4.1387,4.148,4.15,4.1563,4.1447,4.1449,4.145,0,4.1458,4.1459,4.1499,4.1485,4.1489,4.1506,4.1507,4.1516,4.1511,4.15,4.1502,4.1477,4.1497,4.1461,4.1487,4.1461,4.1466,4.146,4.1462,4.1462,4.1421,4.1482,4.1583,4.1592,4.1463,4.1462,4.1461,0,4.1532,4.1544,4.1569,4.1568,4.1553,4.1565,4.156,4.1552,4.1556,4.1557,4.1559,4.1564,4.1566,4.157,4.1548,4.1523,4.1577,4.1539,4.157,4.157,4.1583,4.1582,4.1685,4.1586,4.1586,4.1586,4.1586,0,4.161,4.1636,4.1602,4.1618,4.1645,4.1617,4.1645,4.1635,4.1629,4.1642,4.161,4.1623,4.1593,4.1603,4.1586,4.1611,4.1612,4.1605,4.16,4.1607,4.1608,4.161,4.1604,4.1588,4.1588,4.1587,4.1587,0,4.1698,4.1677,4.1701,4.1684,4.1681,4.1702,4.1687,4.1701,4.1687,4.1704,4.1706,4.1684,4.1694,4.1672,4.168,4.1668,4.1703,4.1692,4.1705,4.1702,4.1733,4.1731,4.1841,4.1854,4.1747,4.1748,4.1749,0,4.1749,4.1768,4.1752,4.1759,4.1754,4.1765,4.1768,4.1741,4.1746,4.1741,4.1755,4.1763,4.1767,4.1785,4.177,4.1776,4.1764,4.1802,4.1764,4.1771,4.1764,4.1763,4.1765,4.181,4.1811,4.1812,4.1813,0,4.1842,4.183,4.1836,4.1839,4.1844,4.1845,4.1843,4.185,4.1821,4.1829,4.1838,4.1842,4.1849,4.1857,4.1859,4.1853,4.1829,4.1825,4.1832,4.184,4.1847,4.1843,4.1726,4.1822,4.1821,4.1821,4.182,4.182,4.1912,4.1927,4.1918,4.1926,4.1922,4.1922,4.1933,4.192,4.1928,4.1931,4.1915,4.1928,4.1922,4.1922,4.1919,4.1929,4.1912,4.1923,4.1925,4.1928,4.1933,4.1846,4.1929,4.1929,4.1929,4.1929,4.1928,0,4.2003,4.1996,4.2003,4.2002,4.2008,4.1984,4.1981,4.1988,4.2,4.1996,4.2,4.2012,4.2019,4.2004,4.201,4.2021,4.2009,4.2023,4.2022,4.2021,4.1949,4.1941,4.2032,4.2032,4.2032,4.2032,4.2032,4.2032,4.2051,4.2074,4.2062,4.2083,4.2075,4.2088,4.2088,4.2087,4.2084,4.2097,4.2103,4.2093,4.2085,4.2089,4.2095,4.2091,4.2094,4.2112,4.2103,4.2036,4.2026,4.2016,4.2009,4.2113,4.2113,4.2174,4.2175,4.2175]}]]